#timestamp,LO_Frequency,Hit,StdDev 
1458525615.0,286047000.6,N
1458525615.9,286047000.6,N
1458525635.8,286047000.8,N
1458525655.6,286046997.3,N
1458525675.4,286046995.9,N
1458525695.3,286046995.9,N
1458525715.1,286046993.7,N
1458525716.0,286046993.7,N
1458525735.8,286046996.4,N
1458525755.6,286046993.6,N
1458525775.5,286046994.0,N
1458525795.3,286046995.5,N
1458525815.1,286046995.6,N
1458525835.9,286046995.2,N
1458525855.7,286046997.5,N
1458525875.5,286046995.5,N
1458525895.4,286046996.0,N
1458525915.2,286046993.6,N
1458525935.0,286046994.4,N
1458525935.9,286046994.4,N
1458525955.8,286046992.7,Y
1458525975.6,286046998.6,P
1458525995.4,286047000.8,N
1458526015.3,286047002.2,N
1458526035.1,286047002.5,N
1458526036.0,286047002.5,N
1458526055.8,286047003.2,N
1458526075.7,286047002.4,N
1458526095.5,286047001.4,N
1458526115.3,286047002.0,N
1458526135.2,286046999.7,N
1458526155.9,286046999.4,N
1458526175.7,286047001.7,N
1458526195.6,286047002.4,N
1458526215.4,286047000.8,N
1458526235.2,286046998.8,N
1458526255.0,286046998.9,N
1458526255.9,286046998.9,N
1458526275.8,286046998.3,N
1458526295.6,286046998.7,N
1458526315.4,286047000.1,N
1458526335.3,286046998.6,N
1458526355.1,286046996.6,N
1458526375.8,286046997.8,N
1458526395.7,286046995.2,N
1458526415.5,286046997.6,N
1458526435.3,286046999.1,N
1458526455.2,286046996.7,N
1458526475.9,286047001.2,N
1458526495.7,286046999.6,N
1458526515.6,286046998.3,N
1458526535.4,286046998.8,N
1458526555.2,286046999.3,N
1458526575.0,286046998.7,N
1458526576.0,286046998.7,N
1458526595.8,286046999.1,N
1458526615.6,286046999.1,N
1458526635.4,286046997.1,N
1458526655.3,286046995.3,N
1458526675.1,286046991.9,Y
1458526695.8,286046994.2,P
1458526715.7,286046998.0,N
1458526735.5,286047001.2,N
1458526755.3,286046999.3,N
1458526775.2,286047001.2,N
1458526795.9,286046997.9,N
1458526815.7,286046999.3,N
1458526835.6,286046999.9,N
1458526855.4,286046997.0,N
1458526875.2,286046995.5,N
1458526895.1,286046993.8,N
1458526896.0,286046993.8,N
1458526915.8,286046992.1,Y
1458526935.7,286046994.8,P
1458526955.5,286046994.5,P
1458526975.3,286046993.9,P
1458526995.1,286046998.0,N
1458527015.9,286046995.0,N
1458527035.7,286046991.8,Y
1458527055.6,286046999.4,P
1458527075.4,286046996.6,N
1458527095.2,286046999.5,N
1458527115.0,286046999.2,N
1458527115.9,286046999.2,N
1458527135.8,286046995.3,Y
1458527155.6,286046997.0,P
1458527175.4,286047000.0,N
1458527195.3,286046998.3,N
1458527215.1,286046997.1,N
1458527235.9,286046996.3,Y
1458527255.7,286046999.6,P
1458527275.5,286046998.5,N
1458527295.3,286047000.4,N
1458527315.2,286046998.7,N
1458527335.0,286047002.5,N
1458527335.9,286047002.5,N
1458527355.7,286047004.6,N
1458527375.6,286047008.9,Y
1458527395.4,286047010.7,P
1458527415.2,286047010.5,N
1458527435.1,286047015.2,P
1458527436.0,286047015.2,N
1458527455.8,286047014.8,N
1458527475.6,286047015.1,N
1458527495.5,286047015.7,Y
1458527515.3,286047009.2,P
1458527535.1,286047008.8,P
1458527555.9,286047008.4,P
1458527575.7,286047008.9,Y
1458527595.5,286047002.8,P
1458527615.4,286047003.1,N
1458527635.2,286047004.8,N
1458527655.0,286047010.8,Y
1458527655.9,286047010.8,P
1458527675.8,286047004.8,N
1458527695.6,286047003.3,N
1458527715.4,286047003.0,N
1458527735.3,286047004.3,N
1458527755.1,286047003.6,N
1458527756.0,286047003.6,N
1458527775.8,286047002.1,N
1458527795.7,286047000.2,N
1458527815.5,286047002.0,N
1458527835.3,286047000.9,N
1458527855.1,286047002.3,N
1458527875.9,286047001.0,N
1458527895.7,286047000.4,N
1458527915.5,286047000.6,N
1458527935.4,286047004.4,N
1458527955.2,286047001.6,N
1458527975.0,286047002.0,N
1458527975.9,286047002.0,N
1458527995.8,286047001.9,N
1458528015.6,286047004.4,N
1458528035.4,286047007.2,Y
1458528055.3,286047003.7,P
1458528075.1,286047003.7,P
1458528076.0,286047003.7,P
1458528095.8,286047004.1,Y
1458528115.7,286046996.7,P
1458528135.5,286047001.1,N
1458528155.3,286046996.5,N
1458528175.2,286047001.2,N
1458528195.9,286047002.7,N
1458528215.7,286047002.0,N
1458528235.6,286047001.6,N
1458528255.4,286047001.7,N
1458528275.2,286047004.2,N
1458528295.0,286047003.2,N
1458528296.0,286047003.2,N
1458528315.8,286047009.0,Y
1458528335.6,286047006.8,P
1458528355.5,286047006.5,N
1458528375.3,286047008.2,P
1458528395.1,286047010.3,Y
1458528415.9,286047003.4,P
1458528435.7,286047001.6,N
1458528455.5,286047003.7,N
1458528475.3,286047000.3,N
1458528495.2,286047000.4,N
1458528515.0,286047002.6,N
1458528515.9,286047002.6,N
1458528535.7,286047002.4,N
1458528555.6,286047002.2,N
1458528575.4,286047001.0,N
1458528595.2,286046999.3,N
1458528615.1,286047000.0,N
1458528616.0,286047000.0,N
1458528635.8,286047001.6,N
1458528655.6,286047003.6,N
1458528675.5,286047005.9,Y
1458528695.3,286047006.0,P
1458528715.1,286047002.3,N
1458528735.9,286047001.9,N
1458528755.7,286047002.1,N
1458528775.5,286047003.6,N
1458528795.4,286047004.2,N
1458528815.2,286047003.9,N
1458528835.0,286047002.5,N
1458528835.9,286047002.5,N
1458528855.8,286047002.2,N
1458528875.6,286046998.8,N
1458528895.4,286046998.3,N
1458528915.3,286046996.9,N
1458528935.1,286046994.7,N
1458528936.0,286046994.7,N
1458528955.8,286046991.8,N
1458528975.6,286046994.7,N
1458528995.5,286046995.2,N
1458529015.3,286046992.8,N
1458529035.1,286046989.3,N
1458529055.9,286046988.1,N
1458529075.7,286046986.0,N
1458529095.5,286046986.2,N
1458529115.4,286046984.0,N
1458529135.2,286046987.9,N
1458529155.0,286046985.7,N
1458529155.9,286046985.7,N
1458529175.8,286046986.0,N
1458529195.6,286046984.4,N
